Location: Angwan Shehu
(11.2514°N, 7.4613°E)
Time: 16:06:45
(UTC+00:00)

Cosmos 1633 Rocket - Pass Details

Date: 14 November 2019
Orbit: 608 x 622 km, 82.5° (Epoch: 09 December)

Event Time Altitude Azimuth Distance (km) Brightness Sun altitude
Rises 17:40:31 0° 15° (NNE) 2,885 6.2 -9.6°
Reaches altitude 10° 17:43:03 10° 28° (NNE) 1,981 5.2 -10.2°
Maximum altitude 17:46:42 26° 84° (E) 1,239 4.0 -11.0°
Drops below altitude 10° 17:50:21 10° 141° (SE) 1,985 5.4 -11.9°
Sets 17:52:52 0° 154° (SSE) 2,891 6.4 -12.5°
